[[{"header":{"parameterUnit":"m.s-1","parameterCategory":2,"la1":30.2991,"la2":30.254,"lo1":-89.0895,"lo2":-89.0444,"dy":0.0017,"dx":0.0017,"nx":28,"ny":28,"refTime":"2024-03-15T21:00:00:Z","depth":"0","parameterNumber":2,"parameterNumberName":"U-component_of_CURRENTS"},"data":[0,0,0,0,0,0,0,0,0,0,0,0,0,0,0,0,0,0,0,0,0,0,0,0,0,0,0,0,0,0,0,0,0,0,0,0,0,0,0,0,0,0,0,0,0,0,0,0,0,0,0,0,0,0,0,0,0,0,0.2579,0.258,0,0.2627,0.2628,0.2628,0.2633,0.2633,0.2633,0.2633,0.2643,0.2643,0.2644,0,0,0,0,0,0,0,0,0,0,0,0,0,0.2498,0.2499,0.2579,0.258,0.2581,0.2627,0.2628,0.2628,0.2634,0.2633,0.2633,0.2633,0.2643,0.2643,0.2644,0,0,0,0,0,0,0,0,0,0,0,0,0,0.2535,0.2499,0.2579,0.2591,0.2593,0.2627,0.2628,0.2628,0.2634,0.2633,0.2633,0.2633,0.2643,0.2643,0.2644,0.2655,0,0,0.2646,0.2647,0,0,0,0,0,0,0,0,0.2533,0.2538,0.2588,0.259,0.2592,0.2626,0.2603,0.2636,0.2634,0.2615,0.2633,0.2632,0.2636,0.2637,0.2644,0.2656,0.2656,0.2646,0.2647,0.2647,0.2647,0,0,0,0,0,0,0,0.2531,0.2536,0.2595,0.2589,0.2592,0.2596,0.2601,0.2609,0.2624,0.2617,0.2618,0.2628,0.2636,0.2643,0.2644,0.2657,0.2646,0.2647,0.2647,0.2648,0.2719,0.272,0,0,0,0,0,0,0.2531,0.2534,0.2594,0.2597,0.2564,0.2598,0.2603,0.2614,0.2625,0.2627,0.2628,0.2628,0.2642,0.2643,0.2644,0.2689,0.2647,0.2648,0.2648,0.2717,0.2719,0.272,0,0,0,0,0,0,0.2529,0.2535,0.2592,0.2568,0.2576,0.26,0.2612,0.2615,0.2624,0.2634,0.2635,0.2635,0.2642,0.2643,0.2662,0.2688,0.2648,0.2649,0.2715,0.2718,0.272,0.2759,0,0,0,0,0,0,0.2526,0.2534,0.2539,0.2569,0.2578,0.2618,0.2612,0.2616,0.2632,0.2632,0.264,0.2641,0.2642,0.2661,0.2663,0.2689,0.2649,0.2714,0.2716,0.2719,0.2756,0.2763,0.2768,0,0,0,0,0,0.2523,0.2534,0.2539,0.2547,0.2585,0.2619,0.2624,0.2638,0.2633,0.2643,0.265,0.2641,0.268,0.2663,0.2664,0.2691,0.2712,0.2716,0.2719,0.2754,0.2761,0.2768,0,0,0,0,0,0,0.2501,0.2537,0.2543,0.2564,0.2592,0.2621,0.2635,0.264,0.2654,0.2653,0.2654,0.2656,0.2684,0.2683,0.2664,0.2721,0.2697,0.2701,0.2723,0.273,0.2736,0.2748,0.265,0,0,0,0,0,0.25,0.2517,0.2551,0.2569,0.2585,0.2609,0.2623,0.2633,0.2652,0.2657,0.2665,0.2679,0.27,0.2709,0.2723,0.275,0.2789,0.2771,0.2777,0.2782,0.2794,0.2846,0.2858,0.2731,0.2731,0.2731,0,0,0.2496,0.2519,0.2528,0.2566,0.2589,0.2621,0.2616,0.2643,0.2669,0.2656,0.2689,0.2696,0.2711,0.2746,0.2759,0.2747,0.2852,0.2786,0.279,0.28,0.2851,0.2863,0.2874,0.2733,0.2733,0.2733,0,0,0.2503,0.2521,0.2539,0.2568,0.2606,0.2627,0.2636,0.2668,0.2682,0.2712,0.2717,0.2741,0.2764,0.2789,0.2802,0.2849,0.2879,0.2855,0.2896,0.2945,0.2956,0.2966,0.3089,0.311,0.2859,0.2859,0.2859,0,0.2495,0.2526,0.255,0.2581,0.261,0.2632,0.2664,0.2688,0.272,0.2736,0.2727,0.2783,0.2789,0.2845,0.2867,0.2863,0.292,0.2864,0.2953,0.2963,0.2973,0.3096,0.3118,0.2862,0.2861,0.2861,0.2861,0,0.2518,0.2548,0.2566,0.2615,0.2647,0.2679,0.2721,0.2746,0.2761,0.2781,0.2829,0.2847,0.2881,0.2892,0.2895,0.2969,0.3003,0.2952,0.2933,0.2988,0.3115,0.3137,0.2865,0.2864,0.2863,0.2863,0,0,0.2488,0.2565,0.2571,0.26,0.2668,0.2693,0.2748,0.2798,0.2832,0.2859,0.2909,0.2948,0.2953,0.2971,0.2983,0.303,0.316,0.3026,0.3028,0.3149,0.334,0.3334,0.3359,0.3121,0.3123,0.3125,0.3424,0,0.2499,0.2559,0.2596,0.2655,0.2695,0.274,0.2791,0.2837,0.2876,0.2929,0.2958,0.3011,0.2987,0.3019,0.3058,0.3134,0.3211,0.3089,0.327,0.3277,0.3262,0.3379,0.3259,0.351,0.3445,0.3449,0.3452,0,0.2507,0.2551,0.2609,0.2686,0.2705,0.2737,0.282,0.2868,0.2948,0.2983,0.3035,0.3069,0.3169,0.312,0.3293,0.3219,0.3291,0.3343,0.3353,0.3344,0.331,0.3434,0.3553,0.3442,0.3486,0.3483,0.3481,0,0.2486,0.2555,0.2601,0.2629,0.272,0.2744,0.2788,0.2872,0.2941,0.3028,0.3099,0.3179,0.3269,0.3338,0.3463,0.3389,0.3662,0.3565,0.3643,0.3647,0.3578,0.3569,0.3601,0.3686,0.3685,0.3684,0.3683,0,0.2505,0.2542,0.2584,0.2618,0.2675,0.2726,0.2807,0.2862,0.2966,0.3068,0.3124,0.3238,0.3325,0.3482,0.3537,0.3702,0.3733,0.37,0.3721,0.3595,0.3585,0.3507,0.3442,0.3695,0.3693,0.3691,0.3689,0,0.2522,0.255,0.2602,0.266,0.2679,0.2722,0.284,0.2909,0.2996,0.314,0.3188,0.3349,0.3551,0.3672,0.3847,0.3837,0.3865,0.4004,0.3895,0.3895,0.3778,0.372,0.3685,0.358,0.4124,0.4126,0.4127,0,0.2574,0.2586,0.2624,0.2674,0.2709,0.2777,0.2845,0.2924,0.301,0.3214,0.3292,0.3525,0.3663,0.3947,0.401,0.416,0.399,0.4109,0.3903,0.3802,0.3754,0.3569,0.3466,0.3876,0.3875,0.3874,0.3874,0,0.2674,0.2646,0.2696,0.2736,0.2796,0.2859,0.2942,0.3004,0.3119,0.323,0.3389,0.3506,0.3794,0.3881,0.4084,0.4131,0.3891,0.4097,0.3999,0.3585,0.3379,0.3276,0.3706,0.3868,0.3868,0.3869,0.3869,0.3869,0.2755,0.2774,0.2779,0.2816,0.288,0.2895,0.2907,0.3,0.3083,0.3195,0.3381,0.3512,0.3715,0.3956,0.3983,0.3944,0.3883,0.3818,0.3783,0.3625,0.341,0.3867,0.4016,0.4017,0.4018,0.4019,0.402,0,0.2821,0.2811,0.2865,0.2869,0.2884,0.2891,0.2943,0.292,0.2951,0.3128,0.3236,0.3449,0.3555,0.3679,0.3743,0.3638,0.3431,0.3552,0.3243,0.3173,0.3613,0.3484,0.3511,0.3511,0.3512,0.3512,0.3512,0.3512,0.2865,0.2871,0.2837,0.2833,0.2831,0.2768,0.2747,0.273,0.2801,0.288,0.2988,0.3136,0.3356,0.3503,0.3436,0.3365,0.3091,0.2999,0.2962,0.3253,0.3272,0.329,0.315,0.3108,0.3107,0.2377,0.2372,0.2368]},{"header":{"parameterUnit":"m.s-1","parameterCategory":2,"la1":30.2991,"la2":30.254,"lo1":-89.0895,"lo2":-89.0444,"dy":0.0017,"dx":0.0017,"nx":28,"ny":28,"refTime":"2024-03-15T21:00:00:Z","depth":"0","parameterNumber":3,"parameterNumberName":"V-component_of_CURRENTS"},"data":[0,0,0,0,0,0,0,0,0,0,0,0,0,0,0,0,0,0,0,0,0,0,0,0,0,0,0,0,0,0,0,0,0,0,0,0,0,0,0,0,0,0,0,0,0,0,0,0,0,0,0,0,0,0,0,0,0,0,-0.0127,-0.0127,0,-0.0199,-0.02,-0.0201,-0.0259,-0.026,-0.026,-0.026,-0.0373,-0.0375,-0.0378,0,0,0,0,0,0,0,0,0,0,0,0,0,-0.0082,-0.0082,-0.0127,-0.0127,-0.0128,-0.0199,-0.02,-0.0201,-0.0259,-0.026,-0.026,-0.0261,-0.0372,-0.0375,-0.0378,0,0,0,0,0,0,0,0,0,0,0,0,0,-0.0123,-0.0082,-0.0127,-0.0165,-0.0169,-0.0198,-0.02,-0.0201,-0.0259,-0.026,-0.026,-0.0261,-0.0371,-0.0375,-0.0379,-0.0388,0,0,-0.039,-0.0392,0,0,0,0,0,0,0,0,-0.0121,-0.0125,-0.0158,-0.0162,-0.0167,-0.022,-0.0225,-0.0265,-0.0259,-0.0226,-0.026,-0.0261,-0.0324,-0.0332,-0.0345,-0.0393,-0.0398,-0.0391,-0.0393,-0.0395,-0.0396,0,0,0,0,0,0,0,-0.0118,-0.0122,-0.0157,-0.0159,-0.0164,-0.0193,-0.0199,-0.0233,-0.0272,-0.0229,-0.0233,-0.0239,-0.0327,-0.0341,-0.0348,-0.04,-0.039,-0.0394,-0.0396,-0.0398,-0.0462,-0.0461,0,0,0,0,0,0,-0.0103,-0.0119,-0.0154,-0.0159,-0.0144,-0.0193,-0.02,-0.0203,-0.0271,-0.0281,-0.0238,-0.0241,-0.0334,-0.0344,-0.0352,-0.0365,-0.0395,-0.0398,-0.04,-0.0463,-0.0462,-0.0461,0,0,0,0,0,0,-0.0102,-0.0105,-0.0151,-0.014,-0.0148,-0.0192,-0.0195,-0.0204,-0.0217,-0.0277,-0.0289,-0.0242,-0.0335,-0.0347,-0.0375,-0.037,-0.04,-0.0403,-0.0463,-0.0462,-0.0462,-0.0391,0,0,0,0,0,0,-0.01,-0.0104,-0.0099,-0.0139,-0.0148,-0.0155,-0.0195,-0.0205,-0.0219,-0.0223,-0.0284,-0.0295,-0.0337,-0.0369,-0.0379,-0.0375,-0.0406,-0.0464,-0.0463,-0.0462,-0.0394,-0.0388,-0.0383,0,0,0,0,0,-0.0098,-0.0081,-0.0098,-0.0102,-0.0139,-0.0154,-0.0161,-0.0197,-0.0218,-0.0213,-0.0257,-0.0293,-0.0369,-0.0371,-0.0383,-0.0381,-0.0465,-0.0463,-0.0462,-0.0397,-0.0389,-0.0383,0,0,0,0,0,0,-0.0052,-0.0087,-0.0106,-0.0099,-0.0121,-0.0163,-0.0162,-0.0188,-0.0219,-0.0225,-0.0286,-0.03,-0.0324,-0.0357,-0.0358,-0.0395,-0.0423,-0.0424,-0.0369,-0.0362,-0.0357,-0.0342,-0.0409,0,0,0,0,0,-0.004,-0.0041,-0.0076,-0.0069,-0.0077,-0.0119,-0.013,-0.0152,-0.0186,-0.0201,-0.0243,-0.0288,-0.0327,-0.0348,-0.0384,-0.0402,-0.0407,-0.0408,-0.0402,-0.0397,-0.0392,-0.0407,-0.0402,-0.0457,-0.0457,-0.0457,0,0,-0.002,-0.0039,-0.0039,-0.006,-0.0082,-0.0085,-0.0127,-0.0133,-0.014,-0.0208,-0.0226,-0.0269,-0.0327,-0.0349,-0.0363,-0.0377,-0.0374,-0.0395,-0.039,-0.0389,-0.0405,-0.04,-0.0395,-0.0456,-0.0456,-0.0456,0,0,0.0022,0.0004,0.0016,0.0001,-0.0022,-0.0049,-0.0047,-0.0084,-0.0104,-0.0123,-0.0178,-0.0214,-0.0266,-0.031,-0.034,-0.0323,-0.0342,-0.0332,-0.0294,-0.0308,-0.0304,-0.03,-0.0253,-0.0245,-0.0329,-0.0329,-0.0329,0,0.0048,0.0053,0.002,0.0028,0.0017,-0.0029,-0.002,-0.0043,-0.0084,-0.0099,-0.0116,-0.0198,-0.0249,-0.0289,-0.0287,-0.0311,-0.0298,-0.0316,-0.03,-0.0297,-0.0294,-0.0247,-0.024,-0.0326,-0.0326,-0.0327,-0.0327,0,0.0093,0.0096,0.0106,0.0091,0.0079,0.0083,0.0044,0.0032,0.0001,-0.0028,-0.0064,-0.0129,-0.0174,-0.0201,-0.0243,-0.0255,-0.0241,-0.0289,-0.0314,-0.0284,-0.0236,-0.023,-0.0321,-0.0322,-0.0323,-0.0324,0,0,0.015,0.0139,0.0141,0.0141,0.011,0.0107,0.0097,0.0071,0.0073,0.0026,0.003,-0.0059,-0.0087,-0.0122,-0.0177,-0.0203,-0.0168,-0.0231,-0.0233,-0.0176,-0.0144,-0.0111,-0.0101,-0.0211,-0.0211,-0.0211,-0.0099,0,0.0193,0.0221,0.0195,0.0213,0.0222,0.0173,0.017,0.0141,0.0115,0.0115,0.0042,0.0032,-0.0057,-0.006,-0.0106,-0.015,-0.0156,-0.0191,-0.0188,-0.0187,-0.0158,-0.0096,-0.0115,-0.0017,-0.0093,-0.0092,-0.0092,0,0.0241,0.0251,0.0279,0.0269,0.0268,0.027,0.0253,0.0251,0.0227,0.0214,0.018,0.0143,0.0107,0.0034,-0.0027,-0.0039,-0.0081,-0.0123,-0.0121,-0.0116,-0.0146,-0.0071,-0.0003,-0.0223,-0.0083,-0.0084,-0.0084,0,0.0299,0.0305,0.0327,0.0325,0.0312,0.0312,0.0307,0.0283,0.0319,0.0303,0.0358,0.0263,0.0303,0.0184,0.0115,0.0049,0.0081,-0.0025,-0.0032,-0.0028,-0.0057,-0.0057,-0.0202,-0.0063,-0.0064,-0.0064,-0.0064,0,0.0356,0.0382,0.0358,0.0377,0.0421,0.0375,0.043,0.0414,0.0441,0.0541,0.0436,0.0532,0.0346,0.0345,0.0197,0.0148,0.0153,0.0003,-0.0001,-0.0027,-0.0025,-0.0231,-0.0336,-0.006,-0.0061,-0.0061,-0.0062,0,0.0448,0.0424,0.0467,0.0454,0.046,0.0504,0.0559,0.0617,0.0616,0.0759,0.0785,0.0786,0.0793,0.0627,0.0505,0.0329,0.012,0.0198,0.022,0.0213,-0.0069,-0.0166,-0.0243,-0.0335,0.0175,0.0176,0.0177,0,0.0522,0.0535,0.0552,0.0608,0.0619,0.0672,0.0734,0.0723,0.0815,0.0949,0.1059,0.111,0.1193,0.1032,0.0723,0.0498,0.0271,0.031,0.0134,-0.0059,-0.0172,-0.0248,-0.0328,0.015,0.015,0.0151,0.0152,0,0.0671,0.0654,0.0699,0.0779,0.0851,0.0934,0.1022,0.1114,0.1162,0.1296,0.1499,0.1574,0.1445,0.1233,0.0909,0.0693,0.0147,0.0317,0.0085,-0.0218,-0.0279,-0.0376,0.0092,0.0158,0.0157,0.0157,0.0156,0.0156,0.0812,0.0864,0.0895,0.0974,0.1068,0.1185,0.1272,0.1399,0.1571,0.1775,0.1835,0.1984,0.1621,0.1177,0.0874,0.0242,0.0241,-0.0012,-0.0106,-0.0159,-0.0292,0.0231,0.0295,0.0295,0.0296,0.0296,0.0296,0,0.0965,0.0994,0.109,0.1178,0.1291,0.1291,0.1459,0.1559,0.1786,0.2016,0.2185,0.2103,0.1642,0.1111,0.0299,-0.0137,-0.0339,-0.0381,-0.0556,-0.0617,-0.0183,-0.0238,-0.0248,-0.0248,-0.0248,-0.0247,-0.0247,-0.0247,0.1059,0.1148,0.1149,0.1335,0.1408,0.1546,0.1637,0.1823,0.1994,0.2266,0.2372,0.2423,0.1977,0.0606,-0.0383,-0.0615,-0.0926,-0.0944,-0.1089,-0.0882,-0.0858,-0.0836,-0.0917,-0.107,-0.1071,-0.1523,-0.1528,-0.1532]}],[{"header":{"parameterUnit":"m.s-1","parameterCategory":2,"la1":30.2991,"la2":30.254,"lo1":-89.0895,"lo2":-89.0444,"dy":0.0017,"dx":0.0017,"nx":28,"ny":28,"refTime":"2024-03-15T21:00:00:Z","depth":"2","parameterNumber":2,"parameterNumberName":"U-component_of_CURRENTS"},"data":[0,0,0,0,0,0,0,0,0,0,0,0,0,0,0,0,0,0,0,0,0,0,0,0,0,0,0,0,0,0,0,0,0,0,0,0,0,0,0,0,0,0,0,0,0,0,0,0,0,0,0,0,0,0,0,0,0,0,0.205,0.2051,0,0.208,0.208,0.2079,0.2089,0.2089,0.2089,0.209,0.2099,0.2098,0.2098,0,0,0,0,0,0,0,0,0,0,0,0,0,0.1978,0.1978,0.205,0.2051,0.2052,0.208,0.208,0.2079,0.2088,0.2089,0.209,0.209,0.2099,0.2099,0.2098,0,0,0,0,0,0,0,0,0,0,0,0,0,0.2002,0.1979,0.205,0.2065,0.2067,0.208,0.208,0.2079,0.2088,0.2089,0.209,0.209,0.2099,0.2099,0.2098,0.2083,0,0,0.2097,0.2097,0,0,0,0,0,0,0,0,0.2001,0.2004,0.2062,0.2064,0.2066,0.2087,0.2058,0.2082,0.2088,0.2073,0.209,0.2091,0.2097,0.2096,0.2092,0.2084,0.2084,0.2097,0.2097,0.2097,0.2097,0,0,0,0,0,0,0,0.1999,0.2003,0.2055,0.2063,0.2066,0.2062,0.2066,0.2062,0.2075,0.2075,0.2077,0.209,0.2097,0.2092,0.2092,0.2084,0.2097,0.2097,0.2097,0.2097,0.2148,0.2149,0,0,0,0,0,0,0.2009,0.2001,0.2054,0.2057,0.2042,0.2063,0.2067,0.2074,0.2076,0.2079,0.209,0.2091,0.2092,0.2092,0.2092,0.2138,0.2097,0.2097,0.2097,0.2146,0.2148,0.215,0,0,0,0,0,0,0.2007,0.2013,0.2053,0.2035,0.2041,0.2065,0.2072,0.2075,0.2083,0.2089,0.209,0.2099,0.2093,0.2093,0.2115,0.2136,0.2097,0.2096,0.2145,0.2147,0.2149,0.2189,0,0,0,0,0,0,0.2005,0.2012,0.2021,0.2036,0.2043,0.2069,0.2072,0.2075,0.2093,0.2095,0.2096,0.2097,0.2093,0.2116,0.2115,0.2135,0.2096,0.2143,0.2146,0.2148,0.2186,0.2192,0.2198,0,0,0,0,0,0.2002,0.2011,0.2021,0.2028,0.2054,0.207,0.2072,0.2087,0.2093,0.2096,0.2112,0.2098,0.2133,0.2116,0.2115,0.2136,0.2141,0.2145,0.2148,0.2183,0.2191,0.2198,0,0,0,0,0,0,0.1984,0.2014,0.2025,0.2043,0.2061,0.2074,0.2084,0.2093,0.2104,0.2113,0.2111,0.2113,0.214,0.2135,0.2117,0.2162,0.2137,0.2141,0.2164,0.2172,0.2178,0.219,0.2096,0,0,0,0,0,0.1986,0.2,0.2027,0.2042,0.2053,0.2069,0.2079,0.2092,0.2108,0.2113,0.2118,0.2133,0.215,0.216,0.2166,0.2186,0.221,0.2202,0.2208,0.2213,0.2225,0.2294,0.2308,0.2161,0.2161,0.2161,0,0,0.1984,0.2004,0.2011,0.2039,0.2053,0.2074,0.2075,0.2098,0.2122,0.2112,0.2142,0.2149,0.216,0.2188,0.22,0.2189,0.2269,0.2218,0.2222,0.2231,0.2299,0.2314,0.2326,0.2163,0.2163,0.2163,0,0,0.1986,0.2004,0.2017,0.2036,0.207,0.2083,0.2094,0.2117,0.2133,0.2162,0.217,0.2197,0.2209,0.223,0.2241,0.2285,0.2296,0.2287,0.2329,0.2397,0.2409,0.2421,0.2471,0.2486,0.2294,0.2294,0.2294,0,0.1983,0.2004,0.2023,0.2045,0.2065,0.209,0.2112,0.2134,0.2163,0.2188,0.218,0.2251,0.2233,0.2304,0.2305,0.2298,0.2337,0.2297,0.2405,0.2417,0.2428,0.2477,0.2493,0.2296,0.2296,0.2295,0.2295,0,0.1995,0.2017,0.2027,0.2064,0.2088,0.2108,0.215,0.2183,0.2206,0.2229,0.2302,0.2315,0.2366,0.2357,0.2331,0.2411,0.2413,0.2402,0.2385,0.2446,0.2492,0.2509,0.2299,0.2299,0.2298,0.2297,0,0,0.1973,0.2024,0.2029,0.2064,0.21,0.2133,0.2178,0.2232,0.2291,0.2327,0.2402,0.2423,0.2451,0.2466,0.2471,0.2506,0.2582,0.248,0.2483,0.2527,0.2736,0.2677,0.2689,0.2599,0.2602,0.2605,0.2737,0,0.1975,0.2018,0.2042,0.21,0.2127,0.2174,0.2218,0.2278,0.2329,0.2405,0.2456,0.2524,0.2493,0.2535,0.2571,0.2578,0.263,0.2548,0.2673,0.2677,0.2615,0.2707,0.2485,0.2579,0.2753,0.2756,0.2758,0,0.1976,0.201,0.2051,0.2138,0.2157,0.2194,0.2302,0.2354,0.2452,0.2491,0.2589,0.2637,0.2715,0.2672,0.278,0.2736,0.2741,0.2744,0.2749,0.2693,0.2649,0.2548,0.2603,0.2786,0.2784,0.2782,0.278,0,0.196,0.2027,0.2065,0.2089,0.2176,0.222,0.2278,0.2373,0.244,0.2568,0.2635,0.2752,0.2815,0.2876,0.289,0.2848,0.2992,0.2939,0.291,0.2906,0.2739,0.2714,0.3028,0.3028,0.3028,0.3027,0.3027,0,0.1952,0.1993,0.2067,0.2094,0.2161,0.2232,0.2329,0.2395,0.2512,0.2599,0.2695,0.28,0.2865,0.2957,0.2958,0.3003,0.3072,0.2944,0.2949,0.2745,0.2721,0.291,0.2894,0.3032,0.3031,0.303,0.3029,0,0.1926,0.1968,0.2025,0.2117,0.2149,0.2204,0.2334,0.2411,0.2526,0.2652,0.2703,0.2846,0.2955,0.3032,0.3109,0.3082,0.313,0.3126,0.2874,0.2846,0.2977,0.2963,0.3112,0.3111,0.311,0.311,0.311,0,0.1917,0.1933,0.2024,0.2059,0.2098,0.2193,0.2249,0.2381,0.2452,0.2683,0.2724,0.2895,0.2968,0.3091,0.3084,0.3129,0.3157,0.2932,0.2797,0.3003,0.2993,0.2979,0.2965,0.2595,0.259,0.2586,0.2583,0,0.1887,0.191,0.1959,0.2024,0.2084,0.2153,0.2242,0.2284,0.2454,0.2554,0.2686,0.2783,0.2928,0.2863,0.2932,0.292,0.2905,0.2856,0.3178,0.26,0.2524,0.2511,0.2513,0.255,0.2553,0.2556,0.2558,0.2559,0.1862,0.1872,0.1933,0.1973,0.2052,0.2078,0.2081,0.2177,0.2252,0.2357,0.2524,0.2592,0.2669,0.2644,0.2604,0.258,0.2755,0.2623,0.2631,0.2644,0.2552,0.2479,0.2479,0.2482,0.2484,0.2486,0.2488,0,0.1801,0.1823,0.1881,0.1922,0.1958,0.2031,0.2053,0.202,0.2028,0.2175,0.2252,0.2146,0.2156,0.2251,0.217,0.2186,0.2128,0.2093,0.1992,0.203,0.2062,0.1935,0.1702,0.1699,0.1696,0.1693,0,0,0.1767,0.1781,0.1786,0.1799,0.1852,0.1813,0.1787,0.1756,0.1789,0.1778,0.1823,0.2027,0.2179,0.1893,0.188,0.1775,0.1871,0.1707,0.2347,0.2265,0.2293,0.2392,0.2244,0,0,0,0,0]},{"header":{"parameterUnit":"m.s-1","parameterCategory":2,"la1":30.2991,"la2":30.254,"lo1":-89.0895,"lo2":-89.0444,"dy":0.0017,"dx":0.0017,"nx":28,"ny":28,"refTime":"2024-03-15T21:00:00:Z","depth":"2","parameterNumber":3,"parameterNumberName":"V-component_of_CURRENTS"},"data":[0,0,0,0,0,0,0,0,0,0,0,0,0,0,0,0,0,0,0,0,0,0,0,0,0,0,0,0,0,0,0,0,0,0,0,0,0,0,0,0,0,0,0,0,0,0,0,0,0,0,0,0,0,0,0,0,0,0,-0.0031,-0.0031,0,-0.0088,-0.0089,-0.009,-0.0134,-0.0134,-0.0135,-0.0135,-0.0222,-0.0223,-0.0225,0,0,0,0,0,0,0,0,0,0,0,0,0,0.0003,0.0003,-0.0031,-0.0031,-0.0032,-0.0088,-0.0089,-0.009,-0.0134,-0.0134,-0.0135,-0.0135,-0.0221,-0.0223,-0.0226,0,0,0,0,0,0,0,0,0,0,0,0,0,-0.0029,0.0003,-0.0031,-0.0061,-0.0064,-0.0088,-0.0089,-0.009,-0.0134,-0.0134,-0.0135,-0.0135,-0.022,-0.0223,-0.0226,-0.0232,0,0,-0.0235,-0.0236,0,0,0,0,0,0,0,0,-0.0027,-0.003,-0.0056,-0.0059,-0.0062,-0.0104,-0.0109,-0.0139,-0.0134,-0.0108,-0.0135,-0.0136,-0.0184,-0.019,-0.02,-0.0236,-0.024,-0.0235,-0.0237,-0.0238,-0.0239,0,0,0,0,0,0,0,-0.0025,-0.0028,-0.0054,-0.0056,-0.006,-0.0084,-0.0089,-0.0115,-0.0143,-0.011,-0.0113,-0.0119,-0.0187,-0.0197,-0.0202,-0.0241,-0.0235,-0.0238,-0.0239,-0.024,-0.0301,-0.03,0,0,0,0,0,0,-0.0014,-0.0026,-0.0052,-0.0056,-0.0045,-0.0084,-0.0089,-0.009,-0.0142,-0.015,-0.0118,-0.0121,-0.0192,-0.0199,-0.0206,-0.0218,-0.0238,-0.0241,-0.0242,-0.0301,-0.0301,-0.03,0,0,0,0,0,0,-0.0013,-0.0016,-0.005,-0.0042,-0.0048,-0.0083,-0.0085,-0.0091,-0.0103,-0.0148,-0.0157,-0.0123,-0.0192,-0.0201,-0.0232,-0.0221,-0.0242,-0.0245,-0.0301,-0.0301,-0.03,-0.0241,0,0,0,0,0,0,-0.0012,-0.0015,-0.0013,-0.0041,-0.0048,-0.0059,-0.0084,-0.0092,-0.0105,-0.0109,-0.0155,-0.0164,-0.0194,-0.0227,-0.0234,-0.0226,-0.0247,-0.0301,-0.0301,-0.0301,-0.0243,-0.0239,-0.0235,0,0,0,0,0,-0.001,-0.0002,-0.0012,-0.0015,-0.0043,-0.0058,-0.0064,-0.0092,-0.0105,-0.0106,-0.0141,-0.0162,-0.023,-0.0229,-0.0238,-0.023,-0.0301,-0.0301,-0.0301,-0.0245,-0.024,-0.0235,0,0,0,0,0,0,0.0015,-0.0006,-0.0018,-0.0016,-0.0034,-0.0066,-0.0069,-0.0087,-0.0115,-0.012,-0.0163,-0.0174,-0.0196,-0.0222,-0.022,-0.0247,-0.0268,-0.0269,-0.0223,-0.0218,-0.0214,-0.0193,-0.0249,0,0,0,0,0,0.0022,0.0022,-0.0002,-0.0001,-0.0007,-0.0036,-0.0046,-0.0064,-0.0092,-0.0104,-0.0137,-0.0172,-0.02,-0.0217,-0.0246,-0.0261,-0.0283,-0.0261,-0.0257,-0.0254,-0.0243,-0.0276,-0.0274,-0.0299,-0.0299,-0.0299,0,0,0.0031,0.002,0.0019,0.0004,-0.0012,-0.0012,-0.0044,-0.0053,-0.0055,-0.0109,-0.0123,-0.0159,-0.0202,-0.022,-0.0231,-0.0241,-0.0257,-0.0253,-0.025,-0.024,-0.0275,-0.0273,-0.0271,-0.0299,-0.0299,-0.0299,0,0,0.0053,0.0042,0.005,0.0041,0.0024,0.0008,0.0008,-0.0019,-0.0034,-0.0053,-0.0092,-0.0119,-0.0164,-0.0189,-0.0209,-0.02,-0.0234,-0.0211,-0.0173,-0.0206,-0.0204,-0.0202,-0.0218,-0.0218,-0.0209,-0.0209,-0.0209,0,0.0065,0.0075,0.005,0.0057,0.0057,0.0021,0.0035,0.0015,-0.002,-0.0027,-0.005,-0.0112,-0.0146,-0.0168,-0.0165,-0.0188,-0.0211,-0.0187,-0.02,-0.0199,-0.0198,-0.0215,-0.0216,-0.0206,-0.0207,-0.0207,-0.0207,0,0.0093,0.0103,0.0109,0.0108,0.0102,0.011,0.0083,0.0073,0.005,0.003,0.0002,-0.0052,-0.0087,-0.0103,-0.0132,-0.0143,-0.0161,-0.019,-0.0208,-0.0192,-0.0211,-0.0213,-0.0202,-0.0203,-0.0204,-0.0205,0,0,0.012,0.013,0.0132,0.0147,0.0134,0.0135,0.0132,0.0124,0.013,0.0082,0.0085,0.0027,-0.0004,-0.0028,-0.0072,-0.01,-0.0112,-0.0137,-0.0141,-0.0145,-0.0175,-0.0198,-0.0203,-0.0149,-0.015,-0.015,-0.0186,0,0.0155,0.0188,0.0179,0.0211,0.023,0.0203,0.021,0.0194,0.017,0.0162,0.0102,0.0084,0.0024,0.001,-0.0029,-0.0089,-0.0117,-0.0099,-0.0197,-0.0199,-0.0216,-0.0207,-0.0173,-0.0205,-0.0189,-0.0189,-0.0189,0,0.0188,0.0209,0.0249,0.0277,0.0283,0.0297,0.0305,0.0303,0.0277,0.026,0.0219,0.0169,0.0123,0.0069,-0.0031,-0.0019,-0.0087,-0.014,-0.0143,-0.0186,-0.0227,-0.0222,-0.021,-0.0194,-0.0193,-0.0193,-0.0193,0,0.0225,0.0259,0.0297,0.0305,0.0325,0.0343,0.0353,0.0338,0.0349,0.0322,0.0328,0.0248,0.0223,0.0118,0.0002,-0.0016,-0.0104,-0.0145,-0.0231,-0.0233,-0.0233,-0.0235,-0.0214,-0.0214,-0.0214,-0.0214,-0.0214,0,0.0268,0.0298,0.0324,0.0346,0.04,0.0394,0.0437,0.0434,0.0439,0.0474,0.0384,0.0392,0.0233,0.0155,0.0036,-0.0097,-0.0084,-0.0216,-0.0245,-0.0211,-0.0211,-0.0228,-0.0229,-0.0215,-0.0215,-0.0215,-0.0214,0,0.0293,0.0312,0.0361,0.0401,0.042,0.0455,0.0503,0.0533,0.053,0.0572,0.057,0.0503,0.0401,0.0236,0.0081,-0.004,-0.0171,-0.0223,-0.0164,-0.0186,-0.0286,-0.0283,-0.0323,-0.0324,-0.0325,-0.0326,-0.0327,0,0.0304,0.0331,0.0397,0.0433,0.0456,0.0508,0.0552,0.0577,0.0622,0.065,0.0689,0.0601,0.0562,0.0318,0.0083,-0.0137,-0.0171,-0.0249,-0.0286,-0.0273,-0.0297,-0.0293,-0.029,-0.0256,-0.0257,-0.0257,-0.0257,0,0.0317,0.0342,0.038,0.0463,0.0525,0.0597,0.0673,0.0731,0.0776,0.082,0.0878,0.085,0.0612,0.0395,0.0078,-0.0069,-0.0217,-0.0258,-0.0256,-0.0239,-0.0215,-0.0238,-0.0235,-0.0257,-0.0257,-0.0257,-0.0257,-0.0257,0.0314,0.0347,0.0404,0.0497,0.057,0.0692,0.0777,0.0863,0.0964,0.1054,0.1021,0.0991,0.0731,0.0325,0.0061,-0.0226,-0.0228,-0.0318,-0.0315,-0.0313,-0.0304,-0.0284,-0.0336,-0.0336,-0.0337,-0.0337,-0.0337,0,0.0322,0.037,0.0437,0.0557,0.0662,0.0702,0.0859,0.0954,0.1102,0.1156,0.1192,0.0955,0.07,0.0395,-0.0029,-0.0282,-0.0295,-0.0355,-0.0312,-0.031,-0.0308,-0.0297,-0.0328,-0.0329,-0.033,-0.033,0,0,0.0318,0.0396,0.0455,0.063,0.0713,0.0874,0.0982,0.1114,0.1197,0.1262,0.1241,0.1162,0.0798,0.0497,0.0151,-0.0086,-0.0136,-0.0131,-0.011,-0.0015,-0.001,-0.0259,-0.0237,0,0,0,0,0]}],[{"header":{"parameterUnit":"m.s-1","parameterCategory":2,"la1":30.2991,"la2":30.254,"lo1":-89.0895,"lo2":-89.0444,"dy":0.0017,"dx":0.0017,"nx":28,"ny":28,"refTime":"2024-03-15T21:00:00:Z","depth":"4","parameterNumber":2,"parameterNumberName":"U-component_of_CURRENTS"},"data":[0,0,0,0,0,0,0,0,0,0,0,0,0,0,0,0,0,0,0,0,0,0,0,0,0,0,0,0,0,0,0,0,0,0,0,0,0,0,0,0,0,0,0,0,0,0,0,0,0,0,0,0,0,0,0,0,0,0,0.1208,0.1208,0,0.1266,0.1266,0.1267,0.1309,0.1309,0.131,0.131,0.1378,0.138,0.1381,0,0,0,0,0,0,0,0,0,0,0,0,0,0.113,0.1131,0.1208,0.1208,0.1209,0.1266,0.1266,0.1267,0.1309,0.1309,0.131,0.131,0.1378,0.1379,0.1381,0,0,0,0,0,0,0,0,0,0,0,0,0,0.1173,0.1132,0.1207,0.1237,0.124,0.1265,0.1266,0.1267,0.1309,0.1309,0.131,0.131,0.1377,0.1379,0.1381,0.1383,0,0,0.1388,0.1389,0,0,0,0,0,0,0,0,0.117,0.1176,0.1232,0.1235,0.1239,0.1281,0.1264,0.1307,0.1308,0.1282,0.131,0.1311,0.1347,0.1351,0.136,0.1386,0.1389,0.1388,0.1389,0.139,0.1391,0,0,0,0,0,0,0,0.1167,0.1173,0.123,0.1233,0.1237,0.1247,0.1253,0.1272,0.131,0.1284,0.1288,0.1295,0.1349,0.1358,0.1362,0.139,0.1388,0.139,0.1391,0.1392,0.1495,0.1497,0,0,0,0,0,0,0.1161,0.1171,0.1228,0.1232,0.1206,0.1248,0.1255,0.1266,0.131,0.1317,0.1294,0.1297,0.1354,0.1359,0.1364,0.1432,0.139,0.1392,0.1394,0.1494,0.1495,0.1497,0,0,0,0,0,0,0.1159,0.1166,0.1226,0.1203,0.1211,0.1248,0.1261,0.1267,0.1304,0.1317,0.1325,0.1328,0.1354,0.1361,0.1406,0.1433,0.1393,0.1395,0.1492,0.1494,0.1496,0.1527,0,0,0,0,0,0,0.1157,0.1165,0.1185,0.1202,0.1212,0.1256,0.126,0.1268,0.1306,0.1311,0.1348,0.1353,0.1355,0.1403,0.1408,0.1435,0.1397,0.149,0.1493,0.1496,0.1524,0.153,0.1535,0,0,0,0,0,0.1154,0.117,0.1185,0.1193,0.1234,0.1257,0.1263,0.1291,0.1308,0.1326,0.1355,0.1353,0.1424,0.1406,0.1412,0.144,0.1489,0.1492,0.1495,0.1522,0.1529,0.1535,0,0,0,0,0,0,0.1145,0.1177,0.1193,0.122,0.1246,0.1264,0.1289,0.1307,0.1345,0.1359,0.1371,0.1378,0.1429,0.1432,0.1412,0.1479,0.1457,0.1461,0.1475,0.1482,0.1487,0.1468,0.1399,0,0,0,0,0,0.1152,0.1179,0.1204,0.1229,0.1244,0.1273,0.1293,0.1312,0.134,0.1359,0.1386,0.1415,0.1443,0.1461,0.1485,0.1519,0.153,0.1542,0.1548,0.1552,0.1542,0.1596,0.1605,0.1508,0.1508,0.1508,0,0,0.1156,0.1179,0.1194,0.1231,0.1255,0.1278,0.1288,0.1325,0.135,0.136,0.1414,0.144,0.1458,0.1499,0.1521,0.1507,0.1588,0.1556,0.156,0.1547,0.1601,0.161,0.1618,0.151,0.1509,0.1509,0,0,0.1163,0.1198,0.1219,0.1243,0.1285,0.1303,0.1319,0.1357,0.1384,0.1431,0.1448,0.1485,0.1532,0.1544,0.1555,0.1604,0.1618,0.1625,0.1633,0.1687,0.1695,0.1702,0.1734,0.1744,0.1623,0.1623,0.1623,0,0.1168,0.1193,0.1228,0.1252,0.127,0.1315,0.1333,0.1369,0.1419,0.1439,0.1455,0.1531,0.1546,0.1586,0.1601,0.1614,0.1646,0.1605,0.1693,0.17,0.1707,0.1738,0.1748,0.1625,0.1625,0.1625,0.1625,0,0.1181,0.1209,0.1225,0.1269,0.1297,0.1322,0.1366,0.1408,0.1449,0.1476,0.154,0.1571,0.1612,0.1627,0.1626,0.1685,0.1693,0.1697,0.1673,0.1719,0.1749,0.1759,0.1628,0.1627,0.1627,0.1626,0,0,0.1159,0.122,0.1226,0.1248,0.1306,0.1327,0.1378,0.1422,0.1467,0.152,0.1568,0.1612,0.1642,0.1656,0.1677,0.1711,0.1784,0.1726,0.1728,0.175,0.1903,0.1799,0.1801,0.1819,0.1821,0.1822,0.1906,0,0.1156,0.1194,0.1224,0.1263,0.1285,0.1336,0.1378,0.1432,0.1491,0.1556,0.1593,0.1656,0.1653,0.1692,0.1726,0.1786,0.1813,0.176,0.1861,0.1863,0.1759,0.1809,0.1828,0.1914,0.1916,0.1918,0.1919,0,0.1149,0.1177,0.121,0.1263,0.1278,0.1314,0.1392,0.1438,0.1529,0.158,0.1644,0.1691,0.1758,0.175,0.1858,0.1836,0.1863,0.1891,0.1896,0.1789,0.1777,0.1859,0.1937,0.1936,0.1935,0.1933,0.1932,0,0.1108,0.1162,0.1187,0.1207,0.128,0.1309,0.1356,0.1446,0.1494,0.1611,0.1669,0.1753,0.1825,0.1877,0.194,0.1919,0.2051,0.2031,0.195,0.1944,0.1997,0.1989,0.2081,0.208,0.208,0.208,0.208,0,0.1077,0.1099,0.1179,0.1191,0.1234,0.1299,0.1362,0.1427,0.1527,0.1589,0.169,0.1754,0.1867,0.195,0.1975,0.2005,0.2089,0.1952,0.196,0.2009,0.2001,0.2005,0.1995,0.2083,0.2082,0.2082,0.2081,0,0.1021,0.1074,0.1103,0.1181,0.1215,0.1249,0.1349,0.1396,0.1517,0.1607,0.1648,0.1792,0.1908,0.1994,0.2098,0.2053,0.2086,0.2065,0.2118,0.2129,0.1928,0.1919,0.1976,0.1973,0.197,0.1968,0.1967,0,0.0987,0.1,0.1082,0.1101,0.1137,0.1208,0.1255,0.1376,0.1427,0.1609,0.1637,0.1795,0.1878,0.1954,0.2043,0.2096,0.2064,0.2061,0.1965,0.1915,0.1919,0.1914,0.1908,0.1963,0.1962,0.1961,0.1961,0,0.0903,0.0944,0.0971,0.1021,0.107,0.1122,0.12,0.1234,0.1381,0.1504,0.16,0.1672,0.1801,0.1886,0.1954,0.1974,0.2056,0.2034,0.2038,0.1948,0.19,0.1905,0.1902,0.1952,0.1953,0.1954,0.1955,0,0.0832,0.083,0.0874,0.0923,0.0974,0.1012,0.1075,0.115,0.1226,0.143,0.1457,0.1636,0.1776,0.1823,0.1881,0.191,0.1867,0.1791,0.1807,0.1817,0.1728,0.1641,0.1623,0,0,0,0,0,0.0754,0.0751,0.0768,0.0808,0.0862,0.0904,0.102,0.1095,0.1253,0.1282,0.1366,0.1474,0.1584,0.1672,0.1672,0.1804,0.1868,0.1794,0.1786,0.1904,0.1914,0.1824,0,0,0,0,0,0,0.069,0.0701,0.0729,0.0717,0.0726,0.078,0.0856,0.0971,0.0999,0.1167,0.124,0.1364,0.1496,0.1561,0.1632,0.166,0.1623,0.19,0.1896,0.1899,0.1908,0.1916,0.1826,0,0,0,0,0]},{"header":{"parameterUnit":"m.s-1","parameterCategory":2,"la1":30.2991,"la2":30.254,"lo1":-89.0895,"lo2":-89.0444,"dy":0.0017,"dx":0.0017,"nx":28,"ny":28,"refTime":"2024-03-15T21:00:00:Z","depth":"4","parameterNumber":3,"parameterNumberName":"V-component_of_CURRENTS"},"data":[0,0,0,0,0,0,0,0,0,0,0,0,0,0,0,0,0,0,0,0,0,0,0,0,0,0,0,0,0,0,0,0,0,0,0,0,0,0,0,0,0,0,0,0,0,0,0,0,0,0,0,0,0,0,0,0,0,0,0.0067,0.0066,0,0.0027,0.0027,0.0026,0.0,0.0,0.0,0.0,-0.0065,-0.0066,-0.0068,0,0,0,0,0,0,0,0,0,0,0,0,0,0.0088,0.0088,0.0067,0.0066,0.0066,0.0027,0.0027,0.0026,0.0,0.0,0.0,0.0,-0.0064,-0.0066,-0.0068,0,0,0,0,0,0,0,0,0,0,0,0,0,0.0066,0.0088,0.0067,0.0049,0.0048,0.0027,0.0027,0.0026,0.0,0.0,0.0,0.0,-0.0063,-0.0066,-0.0068,-0.0082,0,0,-0.0076,-0.0077,0,0,0,0,0,0,0,0,0.0067,0.0065,0.0052,0.0051,0.0048,0.002,0.001,-0.0011,0.0,0.0017,0.0,0.0,-0.0038,-0.0043,-0.0051,-0.0085,-0.0088,-0.0076,-0.0078,-0.0079,-0.008,0,0,0,0,0,0,0,0.0069,0.0066,0.005,0.0052,0.005,0.0033,0.003,0.0006,-0.0011,0.0016,0.0014,0.0011,-0.0039,-0.0049,-0.0053,-0.0089,-0.0076,-0.0078,-0.008,-0.0081,-0.0132,-0.0131,0,0,0,0,0,0,0.0078,0.0068,0.0051,0.0049,0.0059,0.0033,0.0029,0.0028,-0.001,-0.0016,0.0012,0.001,-0.0044,-0.005,-0.0055,-0.0061,-0.0079,-0.0081,-0.0083,-0.0132,-0.0132,-0.0131,0,0,0,0,0,0,0.0078,0.0077,0.0053,0.0058,0.0054,0.0033,0.0031,0.0027,0.0018,-0.0013,-0.0019,0.0007,-0.0045,-0.0052,-0.0076,-0.0064,-0.0082,-0.0085,-0.0132,-0.0132,-0.0132,-0.0081,0,0,0,0,0,0,0.0079,0.0077,0.0079,0.0059,0.0054,0.0044,0.0032,0.0027,0.0018,0.0016,-0.0019,-0.0025,-0.0045,-0.0072,-0.0079,-0.0068,-0.0087,-0.0132,-0.0132,-0.0132,-0.0083,-0.0079,-0.0076,0,0,0,0,0,0.008,0.0083,0.0079,0.0077,0.0058,0.0045,0.004,0.0024,0.0018,0.0015,-0.0009,-0.0024,-0.0075,-0.0075,-0.0082,-0.0072,-0.0132,-0.0132,-0.0132,-0.0084,-0.008,-0.0076,0,0,0,0,0,0,0.0092,0.008,0.0075,0.0075,0.0063,0.0041,0.0038,0.0026,0.0005,0.0004,-0.0027,-0.0035,-0.0052,-0.0071,-0.007,-0.0086,-0.0104,-0.0105,-0.0065,-0.0061,-0.0058,-0.0036,-0.0089,0,0,0,0,0,0.0096,0.0097,0.0082,0.0081,0.0078,0.0058,0.0051,0.0041,0.0021,0.0012,-0.0012,-0.0036,-0.0056,-0.0066,-0.009,-0.0101,-0.0126,-0.0098,-0.0094,-0.0091,-0.0079,-0.0109,-0.0107,-0.013,-0.013,-0.013,0,0,0.01,0.0095,0.0094,0.0084,0.0074,0.0076,0.0053,0.0046,0.0049,0.0007,0.0001,-0.0028,-0.0059,-0.007,-0.0078,-0.0083,-0.0101,-0.009,-0.0087,-0.0077,-0.0109,-0.0106,-0.0104,-0.013,-0.013,-0.013,0,0,0.0112,0.0105,0.0111,0.0106,0.0096,0.0087,0.0088,0.0069,0.0061,0.0047,0.0021,0.0003,-0.0033,-0.0045,-0.0057,-0.0049,-0.0085,-0.0059,-0.0019,-0.0048,-0.0046,-0.0045,-0.0085,-0.0088,-0.0052,-0.0052,-0.0052,0,0.0118,0.0128,0.011,0.0117,0.0123,0.0097,0.0111,0.0097,0.0072,0.0073,0.0052,0.0012,-0.0017,-0.0019,-0.0017,-0.0038,-0.0069,-0.0031,-0.0043,-0.0042,-0.0041,-0.0083,-0.0086,-0.0049,-0.005,-0.005,-0.005,0,0.0136,0.0147,0.015,0.0156,0.0157,0.0163,0.0151,0.0148,0.0134,0.012,0.0107,0.0066,0.0048,0.0034,0.0009,0.0006,-0.0023,-0.0039,-0.005,-0.0036,-0.0081,-0.0085,-0.0046,-0.0047,-0.0047,-0.0048,0,0,0.0146,0.0162,0.0164,0.0185,0.0183,0.019,0.0198,0.0203,0.0215,0.018,0.0189,0.0151,0.0127,0.0112,0.0079,0.0055,0.0024,0.0014,0.0011,-0.002,-0.0054,-0.0068,-0.0075,0.0002,0.0002,0.0002,-0.0091,0,0.0169,0.0201,0.0202,0.024,0.026,0.0254,0.0269,0.0267,0.0254,0.025,0.0211,0.0197,0.0156,0.0147,0.0117,0.0044,0.0016,0.005,-0.0068,-0.0072,-0.0081,-0.0078,0.0001,-0.0095,-0.0096,-0.0097,-0.0098,0,0.019,0.0213,0.0255,0.0301,0.031,0.0328,0.036,0.0371,0.0356,0.0342,0.0321,0.0278,0.0239,0.0199,0.0096,0.0115,0.0041,-0.0017,-0.0023,-0.0052,-0.0093,-0.0112,-0.0106,-0.0105,-0.0105,-0.0104,-0.0104,0,0.0214,0.0255,0.0297,0.0309,0.0346,0.0373,0.0396,0.0401,0.0419,0.0401,0.0398,0.034,0.0305,0.0215,0.0086,0.0088,-0.0041,-0.0055,-0.0135,-0.0138,-0.012,-0.012,-0.012,-0.012,-0.012,-0.0119,-0.0119,0,0.0241,0.0276,0.0315,0.0337,0.0399,0.0413,0.0471,0.0477,0.0487,0.0507,0.045,0.0435,0.0305,0.0211,0.0101,-0.0037,-0.0034,-0.0125,-0.0157,-0.0099,-0.0096,-0.0124,-0.0124,-0.0123,-0.0122,-0.0121,-0.0121,0,0.0257,0.0279,0.0335,0.0387,0.0412,0.0456,0.0526,0.0561,0.0561,0.0582,0.0576,0.0494,0.0369,0.0229,0.0065,-0.0018,-0.0147,-0.0196,-0.0133,-0.0161,-0.0227,-0.0223,-0.0284,-0.0285,-0.0286,-0.0287,-0.0287,0,0.0266,0.0294,0.037,0.041,0.0439,0.051,0.056,0.0593,0.0624,0.0614,0.0616,0.0511,0.0437,0.0199,0.0046,-0.0164,-0.0191,-0.0254,-0.0225,-0.0216,-0.0242,-0.0236,-0.023,-0.0289,-0.0289,-0.0289,-0.029,0,0.0288,0.0314,0.0363,0.0443,0.0506,0.0584,0.065,0.0676,0.0706,0.0699,0.0649,0.0532,0.0385,0.0199,0.0027,-0.0121,-0.0208,-0.0265,-0.0263,-0.0236,-0.0223,-0.0246,-0.024,-0.0293,-0.0292,-0.0292,-0.0292,0,0.0305,0.0344,0.0408,0.0481,0.056,0.0636,0.0673,0.0706,0.0736,0.0715,0.069,0.0541,0.0447,0.0219,0.0062,-0.0088,-0.0117,-0.0147,-0.0152,-0.015,-0.0083,-0.0046,-0.0084,0,0,0,0,0,0.0323,0.0375,0.0442,0.0528,0.0602,0.065,0.0724,0.075,0.0767,0.074,0.072,0.0584,0.0355,0.0251,0.01,0.0039,-0.0148,-0.0142,-0.0186,-0.0311,-0.0308,-0.0253,0,0,0,0,0,0,0.034,0.0408,0.0447,0.0551,0.0608,0.0699,0.0749,0.0762,0.0745,0.073,0.0607,0.0548,0.0318,0.0435,0.0094,0.0048,0.0002,-0.0253,-0.0256,-0.0314,-0.031,-0.0307,-0.0249,0,0,0,0,0]}]]